TimeEDT,TemperatureF,Dew PointF,Humidity,Sea Level PressureIn,VisibilityMPH,Wind Direction,Wind SpeedMPH,Gust SpeedMPH,PrecipitationIn,Events,Conditions,WindDirDegrees,DateUTC
12:51 AM,41.0,19.9,43,29.92,10.0,West,16.1,-,N/A,,Scattered Clouds,260,2014-03-21 04:51:00
1:51 AM,39.9,18.0,41,29.92,10.0,West,21.9,27.6,N/A,,Mostly Cloudy,280,2014-03-21 05:51:00
2:51 AM,39.9,19.0,43,29.93,10.0,West,9.2,-,N/A,,Mostly Cloudy,270,2014-03-21 06:51:00
3:51 AM,39.0,19.0,45,29.93,10.0,West,10.4,-,N/A,,Mostly Cloudy,270,2014-03-21 07:51:00
4:51 AM,39.0,19.0,45,29.94,10.0,West,12.7,-,N/A,,Mostly Cloudy,270,2014-03-21 08:51:00
5:51 AM,39.0,19.9,46,29.95,10.0,West,9.2,-,N/A,,Mostly Cloudy,260,2014-03-21 09:51:00
6:51 AM,37.9,19.9,48,29.96,10.0,West,6.9,-,N/A,,Scattered Clouds,260,2014-03-21 10:51:00
7:51 AM,39.0,19.9,46,29.98,10.0,WNW,12.7,-,N/A,,Scattered Clouds,290,2014-03-21 11:51:00
8:51 AM,41.0,19.9,43,29.99,10.0,West,12.7,-,N/A,,Scattered Clouds,260,2014-03-21 12:51:00
9:51 AM,44.1,19.9,38,29.99,10.0,West,13.8,-,N/A,,Scattered Clouds,270,2014-03-21 13:51:00
10:51 AM,45.0,19.0,36,29.99,10.0,West,13.8,21.9,N/A,,Partly Cloudy,280,2014-03-21 14:51:00
11:51 AM,48.0,19.0,32,29.99,10.0,WSW,16.1,26.5,N/A,,Partly Cloudy,250,2014-03-21 15:51:00
12:51 PM,50.0,19.0,29,29.97,10.0,West,17.3,25.3,N/A,,Partly Cloudy,280,2014-03-21 16:51:00
1:51 PM,51.1,18.0,27,29.96,10.0,West,16.1,29.9,N/A,,Scattered Clouds,270,2014-03-21 17:51:00
2:51 PM,52.0,17.1,25,29.97,10.0,West,19.6,31.1,N/A,,Mostly Cloudy,280,2014-03-21 18:51:00
3:51 PM,54.0,16.0,22,29.96,10.0,WNW,20.7,27.6,N/A,,Mostly Cloudy,300,2014-03-21 19:51:00
4:34 PM,53.6,15.8,22,29.96,10.0,West,18.4,24.2,N/A,,Mostly Cloudy,270,2014-03-21 20:34:00
4:51 PM,54.0,16.0,22,29.96,10.0,West,13.8,21.9,N/A,,Scattered Clouds,280,2014-03-21 20:51:00
5:51 PM,53.1,17.1,24,29.98,10.0,West,13.8,19.6,N/A,,Scattered Clouds,270,2014-03-21 21:51:00
6:51 PM,50.0,17.1,27,30.00,10.0,WNW,10.4,-,N/A,,Partly Cloudy,300,2014-03-21 22:51:00
7:51 PM,48.9,16.0,27,30.01,10.0,NNW,8.1,-,N/A,,Partly Cloudy,330,2014-03-21 23:51:00
8:51 PM,48.0,17.1,29,30.04,10.0,NNW,6.9,-,N/A,,Partly Cloudy,330,2014-03-22 00:51:00
9:51 PM,43.0,18.0,37,30.06,10.0,NNE,5.8,-,N/A,,Partly Cloudy,20,2014-03-22 01:51:00
10:51 PM,42.1,21.0,43,30.04,10.0,NNE,6.9,-,N/A,,Partly Cloudy,30,2014-03-22 02:51:00
11:51 PM,39.0,19.9,46,30.06,10.0,NNE,4.6,-,N/A,,Partly Cloudy,20,2014-03-22 03:51:00